Location: McDonald Observatory
(30.6717°N, 104.0221°W)
Time: 22:42:27
(UTC-06:00)

Daily predictions for brighter satellites

Satellite Brightness Start Highest point End
(mag) Time Altitude Azimuth Time Altitude Azimuth Time Altitude Azimuth
Cosmos 1328 Rocket 3.6 18:39:00 10° N 18:43:23 61° E 18:47:46 10° SSE
Cosmos 540 Rocket 3.8 18:39:14 10° S 18:44:10 48° ESE 18:49:08 10° NNE
Cosmos 332 Rocket 4.2 18:41:45 10° SSW 18:46:32 68° WNW 18:51:21 10° N
Cosmos 2278 Rocket 3.3 18:42:35 10° NNE 18:46:55 22° ENE 18:51:14 10° ESE
Cosmos 1908 3.5 18:43:56 10° N 18:47:49 76° W 18:51:42 10° S
SL-14 R/B 3.7 18:45:22 10° SSE 18:49:00 39° E 18:52:42 10° NNE
Cosmos 1674 4.2 18:46:43 10° SSW 18:50:18 40° W 18:53:56 10° N
Cosmos 1515 Rocket 3.7 18:46:01 10° N 18:50:23 52° E 18:54:42 10° SSE
Cosmos 1626 4.1 18:50:13 10° ESE 18:51:10 11° E 18:52:07 10° ENE
USA 215 4.2 18:48:09 10° E 18:53:31 28° NE 18:58:52 10° NNW
SKYMED 2 3.5 18:49:25 10° NNE 18:53:45 74° ESE 18:58:05 10° S
Cosmos 1484 Rocket 2.8 18:50:42 10° SSE 18:54:30 59° ENE 18:58:23 10° N
SPOT 3 Rocket 4.0 18:51:01 10° S 18:56:07 68° WSW 19:01:16 10° NNW
Cosmos 1844 3.9 18:52:37 10° N 18:58:14 50° ENE 19:03:50 10° SE
MSX 4.0 18:53:00 10° S 18:58:43 80° WSW 19:04:28 10° NNW
Cosmos 1500 Rocket 3.7 18:54:55 10° S 18:59:14 80° W 19:03:34 10° N
Cosmos 1151 Rocket 3.3 18:55:40 10° N 18:59:44 42° E 19:03:47 10° SSE
Haruka 3.2 18:56:53 10° WSW 19:00:27 86° S 19:09:16 11° E
SEDSat Delta rocket 3.6 18:58:27 10° W 19:04:12 76° SSW 19:09:09 10° ESE
Cosmos 2237 Rocket 2.2 19:00:57 10° SSW 19:06:34 87° ESE 19:12:13 10° NNE
DMSP B5D1-3 4.5 19:01:57 10° NNE 19:07:03 73° ESE 19:12:07 10° S
Cosmos 1125 Rocket 3.8 19:02:26 10° N 19:07:20 41° ENE 19:12:12 10° SE
ALOS 3.8 19:04:57 10° E 19:07:24 14° ENE 19:09:51 10° NE
Cosmos 1634 Rocket 3.9 19:01:55 10° N 19:08:07 76° E 19:14:15 10° S
Cosmos 44 3.6 19:03:23 10° SSW 19:08:42 77° WNW 19:13:52 10° NNE
SL-16 R/B 2.8 19:06:14 10° SSE 19:11:19 36° ESE 19:16:18 10° NE
Cosmos 1300 2.7 19:08:34 10° N 19:12:20 55° E 19:16:05 10° SSE
IDEFIX/ARIANE 42P 4.5 19:07:46 10° SSW 19:12:26 34° W 19:17:09 10° NNW
Cosmos 1726 2.1 19:10:19 10° N 19:14:03 60° E 19:17:46 10° SSE
Hubble Space Telescope 2.0 19:11:00 10° W 19:14:52 39° SSW 19:18:45 10° SE
BREEZE-M DEB (TANK) 0.9 19:13:21 10° SW 19:14:57 89° NW 19:15:43 28° NE
Sich 1 4.2 19:12:14 10° SE 19:15:43 23° E 19:17:56 16° NE
CZ-4 R/B 4.3 19:13:31 10° SW 19:16:22 19° W 19:19:13 10° NW
Cosmos 371 Rocket 4.5 19:12:23 10° SW 19:16:57 43° WNW 19:21:32 10° N
Cosmos 1633 Rocket 4.3 19:15:30 10° SE 19:18:51 22° E 19:20:05 19° ENE
FREGAT/IRIS 3.7 19:17:06 10° SE 19:19:39 24° ENE 19:20:09 23° ENE
OTV 4 1.8 19:17:24 10° NW 19:19:53 24° N 19:20:41 21° NE
USA 229 DEB 4.5 19:22:58 10° SSE 19:28:44 30° ESE 19:31:47 21° ENE
USA 229 4.5 19:23:07 10° SSE 19:28:50 29° ESE 19:31:49 21° ENE
Resurs 01 Rocket 3.8 19:31:55 11° NNE 19:31:55 11° NNE 19:32:15 10° NNE
OAO 3 Rocket 3.4 19:27:53 10° WNW 19:32:45 69° SSW 19:36:25 17° ESE
Meteor 1-11 4.4 19:27:43 10° SSW 19:33:20 77° W 19:39:04 10° N
Abrixas rocket 3.9 19:31:02 10° WNW 19:34:06 34° SW 19:37:09 10° SSE
Aureole 2 Rocket 2.9 19:31:22 10° SSW 19:34:48 66° WNW 19:38:34 10° N
Meteor 1-28 Rocket 4.5 19:33:26 10° N 19:36:56 40° WNW 19:40:24 10° SW
Helios 1B rocket 4.2 19:39:17 17° SE 19:39:17 17° SE 19:40:50 10° SSE
Centaur AC-119 3.0 19:39:40 10° SW 19:41:49 33° SSE 19:42:55 27° ESE
Cosmos 1844 Rocket 4.0 19:39:05 10° NW 19:44:23 43° WSW 19:49:38 10° S
Cosmos 1461 2.7 19:40:59 10° SSW 19:45:16 80° ESE 19:47:02 33° NNE
Iridium 4 Rocket 3.9 19:41:08 10° SSE 19:44:58 32° E 19:44:58 32° E
Cosmos 1707 Rocket 3.8 19:41:34 10° N 19:45:40 42° E 19:49:46 10° SSE
SJ-6B 2.7 19:41:58 10° SSE 19:45:57 74° ENE 19:50:02 10° N
FAST Rocket 3.9 19:44:52 10° S 19:48:00 88° W 19:48:14 73° N
FengYun 1-2 T 4.4 19:44:10 10° SE 19:49:28 46° ENE 19:54:44 10° N
Cosmos 1666 Rocket 3.4 19:46:00 10° S 19:50:17 67° E 19:52:39 26° NNE
H-2A ROCKET BODY 3.1 19:33:38 10° WSW 19:59:49 77° S 20:02:29 37° E
Cosmos 2279 Rocket 4.3 19:54:09 10° NNW 20:00:19 68° W 20:06:28 10° S
Cosmos 1703 4.1 19:57:40 10° SSW 20:01:27 51° W 20:04:47 13° N
Cosmos 304 Rocket 4.5 19:58:03 10° SSW 20:02:44 53° WNW 20:06:43 14° N
FENGYUN 3A 3.6 19:58:06 10° SSE 20:03:20 59° ENE 20:08:35 10° N
Cosmos 773 Rocket 3.8 20:04:52 10° S 20:09:57 68° ESE 20:10:33 62° ENE
Nadezhda 4 Rocket 4.1 20:08:24 10° S 20:14:36 77° W 20:20:54 10° N
Atlas Centaur 2 3.5 20:11:23 10° WSW 20:14:46 20° SSW 20:16:30 16° S
Cosmos 1603 4.3 20:10:03 10° S 20:14:05 39° SE 20:14:05 39° SE
Cosmos 1356 Rocket 4.3 20:14:35 10° SSW 20:18:27 45° W 20:19:50 31° NNW
Cosmos 1626 4.0 20:22:51 10° SW 20:26:10 30° W 20:27:22 24° NW
Cosmos 2278 Rocket 3.4 20:25:49 10° NW 20:31:04 40° WSW 20:36:19 10° S
Cosmos 1092 Rocket 4.1 20:25:39 10° S 20:31:57 78° W 20:36:35 20° N
USA 215 3.3 20:32:58 34° SSE 20:36:02 75° SW 20:42:36 10° NW
Aureole 1 Rocket 3.9 20:37:40 10° SSW 20:42:13 60° WNW 20:42:14 60° WNW
ALOS 3.3 20:39:59 10° S 20:44:24 43° W 20:48:52 10° NNW
Spot 2 Rocket 4.5 20:46:38 10° S 20:51:27 44° W 20:56:15 10° NNW
SL-16 R/B 4.2 20:50:53 10° WSW 20:55:24 24° WNW 20:58:16 17° NNW
Hubble Space Telescope 3.7 20:53:30 10° WSW 20:54:36 13° SW 20:54:36 13° SW
Milstar 3 3.8 20:49:23 10° W 20:55:42 43° SSW 20:57:25 38° SSE
Resurs 01 Rocket 4.4 21:01:28 10° SSW 21:09:29 - NW 21:01:57 12° SSW
